Location: *
(46.1006°N, 1.8394°E)
Time: 23:00:52
(UTC+00:00)

SL-16 R/B - Pass Details

Date: 20 September 2019
Orbit: 840 x 849 km, 71.0° (Epoch: 17 October)

Event Time Altitude Azimuth Distance (km) Brightness Sun altitude
Rises 21:27:47 0° 323° (NW) 3,416 6.4 -34.0°
Reaches altitude 10° 21:30:40 10° 309° (NW) 2,477 5.4 -34.3°
Enters shadow 21:35:00 24° 260° (W) 1,700 4.0 -34.8°
